SCP
0 0 0 0 0 0 0 0 0 0 0 0 0 0 0 0 0 0 0 0 0 0 0 0 0 0 0 0 0 0 0 0 0 0 0 0 0 0 0 0 0 0 0
0 0 0 0 0 0 0 0 0 0 0 0 0 0 0 0 0 0 0 0 0 0 0 0 0 0 0 0 0 0 0 0 0 0 0 0 0 0 0 0 0 0 0
0 0 0 0 0 0 0 0 0 0 0 0 0 0 0 0 0 0 0 0 0 0 0 0 0 0 0 0 0 0 0 0 0 0 0 0 0 0 0 0 -0 -0 -0
0 0 0 0 0 0 0 0 0 0 0 0 0 0 0 0 0 0 0 0 0 0 0 0 0 0 0 0 0 0 0 0 0 0 0 0 0 0 -0 -0 -0 -0 -0
0 0 0 0 0 0 0 0 0 0 0 0 0 0 0 0 0 0 0 0 0 0 0 0 0 0 0 0 0 0 0 0 0 0 0 0 0 -0 -0 -0 -0 -0 -0
0 0 0 0 0 0 0 0 0 0 0 0 0 0 0 0 0 0 0 0 0 0 0 0 0 0 0 0 0 0 0 0 0 0 0 0 0 0 0 0 0 0 0
0 0 0 0 0 0 0 0 0 0 0 0 0 0 0 0 0 0 0 0 0 0 0 0 0 0 0 0 0 0 0 0 0 0 0 0 0 0 0 0 0 0 0
0 0 0 0 0 0 0 0 0 0 0 0 0 0 0 0 0 0 0 0 0 0 0 0 0 0 0 0 0 0 0 0 0 0 0 0 0 0 0 0 0 0 0
0 0 0 0 0 0 0 0 0 0 0 0 0 0 0 0 0 0 0 0 0 0 0 0 0 0 0 0 0 0 0 0 0 0 0 0 0 0 0 0 0 0 0
0 0 0 0 0 0 0 0 0 0 0 0 0 0 0 0 0 0 0 0 0 0 0 0 0 0 0 0 0 0 0 0 0 0 0 0 0 0 0 0 0 0 0
0 0 0 0 0 0 0 0 0 0 0 0 0 0 0 0 0 0 0 0 0 0 0 0 0 0 0 0 0 0 0 0 0 0 0 0 0 0 0 0 0 0 0
0 0 0 0 0 0 0 0 0 0 0 0 0 0 0 0 0 0 0 0 0 0 0 0 0 0 0 0 0 0 0 0 0 0 0 0 0 0 0 0 0 0 0
0 0 0 0 0 0 0 0 0 0 0 0 0 0 0 0 0 0 0 0 0 0 0 0 0 0 0 0 0 0 0 0 0 0 0 0 0 0 0 0 0 0 0
-0 0 0 0 0 0 0 0 0 0 0 0 0 0 0 0 0 0 0 0 0 0 0 0 0 0 0 0 0 0 0 0 0 0 0 0 0 0 0 0 0 0 0
-0 -0 0 0 0 0 0 0 0 0 0 0 0 0 0 0 0 0 0 0 0 0 0 0 0 0 0 0 0 0 0 0 0 0 0 0 0 0 0 0 0 0 0
0 0 0 0 0 0 0 0 0 0 0 0 0 0 0 0 0 0 0 0 0 0 0 0 0 0 0 0 0 0 0 0 0 0 0 0 0 0 0 0 0 0 0
0 0 0 0 0 0 0 0 0 0 0 0 0 0 0 0 0 0 0 0 0 0 0 0 0 0 0 0 0 0 0 0 0 0 0 0 0 0 0 0 0 0 0
0 0 0 0 0 0 0 0 0 0 0 0 0 0 0 0 0 0 0 0 0 0 0 0 0 0 0 0 0 0 0 0 0 0 0 0 0 0 0 0 0 0 0
0 0 0 0 0 0 0 0 0 0 0 0 0 0 0 0 0 0 0 0 0 0 0 0 0 0 0 0 0 0 0 0 0 0 0 0 0 0 0 0 0 0 0
0 0 0 0 0 0 0 0 0 0 0 0 0 0 0 0 0 0 0 0 0 0 0 0 0 0 0 0 0 0 0 0 0 0 0 0 0 0 0 0 0 0 0
0 0 0 0 0 0 0 0 0 0 0 0 0 0 0 0 0 0 0 0 0 0 0 0 0 0 0 0 0 0 0 0 0 0 0 0 0 0 0 0 0 0 0
0 0 0 0 0 0 0 0 0 0 0 0 0 0 0 0 0 0 0 0 0 0 0 0 0 0 0 0 0 0 0 0 0 0 0 0 0 0 0 0 0 0 0
0 0 0 0 0 0 0 0 0 0 0 0 0 0 0 0 0 0 0 0 0 0 0 0 0 0 0 0 0 0 0 0 0 0 0 0 0 0 0 0 0 0 0
0 0 0 0 0 0 0 0 0 0 0 0 0 0 0 0 0 0 0 0 0 0 0 0 0 0 0 0 0 0 0 0 0 0 0 0 0 0 0 0 0 0 0
0 0 0 0 0 0 0 0 0 0 0 0 0 0 0 0 0 0 0 0 0 0 0 0 0 0 0 0 0 0 0 0 0 0 0 0 0 0 0 0 0 0 0
0 0 0 0 0 0 0 0 0 0 0 0 0 0 0 0 0 0 0 0 0 0 0 0 0 0 0 0 0 0 0 0 0 0 0 0 0 0 0 0 0 0 0
Wind_Speed
6 7 8 7 8 8 9 12 11 11 12 14 15 15 16 16 15 14 13 14 13 11 9 11 9 7 6 5 5 5 4 4 4 2 3 2 4 5 9 9 9 9 9
7 8 9 8 7 8 11 11 12 14 15 15 16 16 16 16 16 17 17 16 16 16 14 12 11 9 8 7 6 7 6 6 5 5 3 2 4 5 8 9 9 8 7
10 10 10 9 10 13 14 11 11 13 15 17 18 19 19 18 18 18 18 18 17 17 16 16 14 13 12 8 9 7 6 6 5 5 4 4 5 6 8 8 8 6 6
11 10 11 11 13 15 13 11 13 13 14 16 19 19 19 19 20 19 18 18 17 16 16 15 15 15 14 13 10 9 7 6 6 5 4 5 6 7 6 5 6 3 7
15 13 11 10 10 11 11 12 13 14 16 14 15 15 17 17 18 20 20 18 18 16 15 14 14 16 17 14 10 11 10 7 6 5 5 5 4 3 4 5 8 6 6
16 15 15 13 10 9 10 10 12 14 13 14 16 16 17 15 24 31 23 18 18 18 17 15 14 15 19 22 19 18 15 11 8 6 5 4 4 4 5 7 9 10 6
14 14 15 15 14 11 9 9 12 13 14 16 16 16 18 21 30 33 32 19 18 18 18 17 13 13 15 15 18 21 19 19 16 10 7 5 4 4 6 8 8 10 11
12 12 13 15 14 12 9 9 10 9 12 14 15 17 16 19 30 32 33 19 16 17 17 18 18 18 17 17 14 13 11 10 10 6 4 4 5 6 6 7 8 8 10
13 14 14 14 14 12 9 8 7 7 10 12 11 14 15 17 29 31 31 12 12 15 15 17 17 17 24 25 16 12 11 8 12 13 13 10 10 10 7 3 3 5 7
14 15 15 13 13 13 10 8 6 7 9 8 9 10 12 12 24 31 31 11 12 12 12 14 18 20 25 27 16 13 11 10 8 6 5 5 4 5 9 5 3 3 4
13 15 15 13 12 12 10 6 5 6 6 7 6 5 7 9 19 30 31 13 13 13 12 12 13 25 25 27 20 12 12 9 5 5 3 2 3 3 3 3 4 5 7
14 15 15 15 12 9 9 7 6 7 7 7 7 6 6 8 14 24 32 24 19 13 13 12 14 27 25 24 17 16 17 10 6 4 2 2 2 2 3 5 7 8 10
15 16 16 16 14 10 10 9 7 8 8 8 8 9 8 8 12 24 29 29 25 11 9 17 21 27 24 18 19 17 10 7 5 4 3 2 2 3 5 6 8 10 13
15 17 16 15 16 12 9 9 9 9 11 11 11 10 9 9 11 12 14 19 22 16 11 15 22 24 16 10 9 9 6 6 5 4 3 1 2 3 5 6 7 7 8
17 17 16 14 15 14 10 10 12 12 13 13 12 11 12 12 15 21 17 15 15 15 15 11 10 12 10 8 6 6 5 6 5 4 3 1 2 4 5 6 6 6 8
19 18 14 12 12 13 11 11 20 20 22 26 22 17 14 18 21 28 30 27 28 30 21 14 13 13 12 11 10 8 6 6 5 4 3 2 2 4 6 6 7 7 9
19 18 15 14 13 14 11 10 10 12 23 26 27 26 22 21 24 29 32 31 31 31 15 12 12 11 11 10 9 8 7 7 6 4 3 2 2 4 6 7 8 8 9
19 18 17 14 13 14 13 10 9 9 9 11 18 26 26 24 24 27 32 28 22 21 12 13 12 12 11 10 9 8 8 7 5 4 3 2 2 3 5 7 8 9 11
18 15 13 13 13 14 13 10 9 9 9 8 6 12 21 23 24 27 30 17 15 15 13 12 11 11 10 10 9 8 7 6 5 4 3 3 3 4 5 8 9 11 12
15 19 18 14 13 13 13 10 8 8 8 8 9 9 10 11 11 15 17 11 11 12 11 10 10 10 10 9 8 7 6 5 5 4 3 3 3 4 7 9 9 10 10
14 15 18 15 13 13 11 9 8 8 8 8 8 11 17 10 9 10 9 9 10 10 9 9 9 9 8 7 7 7 6 5 4 4 3 3 4 4 6 8 9 11 11
13 12 12 12 11 10 8 6 6 7 8 8 5 9 20 8 6 8 9 9 9 7 7 8 8 7 7 7 7 7 6 5 4 4 4 4 4 5 6 8 9 10 10
11 11 10 9 7 6 5 4 5 5 5 5 5 4 6 7 8 10 10 10 9 8 7 7 8 7 6 5 5 5 6 5 5 5 5 4 4 5 6 9 11 11 11
9 8 6 4 2 1 1 2 2 3 4 5 7 8 9 10 11 11 10 10 9 8 7 6 6 8 8 5 4 3 3 4 4 5 7 6 6 6 8 9 10 10 11
9 8 7 6 5 5 5 5 5 7 9 9 10 10 10 10 10 10 9 9 10 8 7 5 4 5 6 6 5 4 7 9 8 6 6 6 9 10 10 9 9 9 10
10 10 9 8 7 7 7 8 9 10 10 9 9 9 9 9 9 9 9 8 8 7 5 4 4 3 3 3 5 7 9 11 11 12 9 8 9 8 8 8 9 9 10
Wind_Direction
280 265 255 241 220 204 200 199 191 182 180 183 185 185 184 185 182 181 180 175 175 172 173 174 173 159 160 158 155 160 168 165 204 256 304 359 4 336 317 311 307 306 306
272 249 237 237 231 225 222 209 193 188 185 185 184 187 190 190 187 186 182 180 179 177 177 174 173 165 164 167 170 175 177 176 180 201 243 249 246 275 281 282 284 280 284
298 270 249 227 217 223 225 217 207 199 192 186 186 190 191 191 190 191 186 185 185 182 178 178 175 171 176 176 176 175 174 179 178 187 215 232 246 250 260 263 267 268 283
330 297 266 242 228 228 223 211 204 201 202 199 194 194 191 190 191 191 188 187 185 183 181 178 175 179 180 175 176 174 170 172 179 197 217 230 239 245 253 275 305 294 307
340 334 309 273 248 236 226 215 206 203 203 201 201 199 194 191 192 190 189 186 183 179 179 178 178 180 181 178 176 174 172 174 176 192 215 226 242 290 313 316 319 316 294
339 339 336 323 291 258 240 222 209 205 200 195 200 199 198 198 198 195 188 184 181 179 178 176 176 178 185 185 188 184 183 178 178 184 210 230 279 307 319 320 320 327 325
333 334 339 337 322 293 259 230 217 209 202 201 200 199 203 204 199 198 193 183 182 181 177 174 173 176 179 180 189 190 196 198 191 191 213 234 264 290 305 308 308 307 299
326 330 335 335 326 309 280 247 229 213 209 207 203 203 206 208 202 198 194 185 184 183 179 175 172 173 182 179 185 193 196 204 214 225 231 238 244 253 265 290 303 302 294
326 329 329 326 318 309 287 260 235 218 217 215 207 203 207 209 204 197 188 179 183 182 178 175 175 174 183 181 178 183 191 205 223 227 231 240 256 282 296 308 304 306 300
322 321 316 311 306 300 285 263 238 225 221 216 217 207 206 205 205 196 184 175 178 174 175 179 183 178 181 179 175 178 188 199 204 213 233 267 286 289 290 276 244 257 277
314 311 308 304 298 292 282 257 236 227 216 209 212 203 202 200 213 200 187 175 178 172 175 177 184 183 183 184 179 183 196 189 168 149 159 234 260 260 265 260 249 241 254
308 305 307 306 298 286 274 255 228 220 218 208 197 195 197 195 215 210 195 183 183 178 179 176 179 181 183 186 184 190 196 164 127 133 162 227 255 275 284 285 278 269 260
304 303 304 303 293 274 259 249 225 211 216 214 205 204 198 195 210 216 202 187 189 177 177 174 174 179 179 186 190 185 160 136 134 144 169 215 249 285 296 291 285 278 273
299 298 297 296 292 276 251 240 230 217 213 210 209 210 203 196 199 207 199 183 181 173 171 171 172 175 164 147 163 163 142 146 149 150 157 206 289 299 291 288 288 295 291
295 292 290 285 283 278 254 237 232 230 223 213 209 201 197 202 204 203 193 181 169 164 159 159 162 161 155 155 149 145 145 147 145 144 155 189 285 291 286 289 285 292 287
291 288 285 282 281 277 265 254 244 239 238 233 224 213 212 205 198 203 204 189 174 168 161 166 168 167 167 165 162 160 159 155 148 148 159 181 259 283 289 289 288 284 285
280 281 281 278 275 276 264 250 250 250 245 240 235 227 216 207 201 200 201 192 180 171 166 167 169 169 166 163 164 161 156 149 144 151 161 175 242 278 287 289 289 287 286
276 276 272 271 269 269 266 249 237 235 241 239 233 232 224 212 206 202 197 188 183 174 169 169 170 166 161 160 161 157 148 144 146 153 160 177 218 254 273 279 281 283 289
276 273 270 269 267 268 267 250 231 227 233 237 222 226 223 211 206 204 196 192 178 167 166 167 165 160 157 157 156 152 147 146 147 150 168 195 214 232 258 269 279 284 286
274 269 268 266 263 262 261 246 227 221 225 227 221 213 200 190 196 198 196 182 164 159 159 157 156 152 149 148 148 145 141 143 150 164 186 204 219 236 259 270 277 282 285
275 270 266 263 258 256 251 233 220 216 220 223 219 208 195 188 190 186 172 151 144 145 149 147 144 141 137 137 140 143 144 150 159 176 193 213 228 244 257 268 273 277 287
275 267 261 257 254 250 235 219 212 213 216 215 202 206 198 176 152 137 126 121 116 118 129 133 129 131 139 145 146 147 155 168 178 185 199 219 236 249 259 267 272 282 294
294 286 275 265 252 230 209 202 202 204 202 191 177 160 140 118 115 109 104 102 101 103 108 116 121 123 124 129 142 157 169 183 184 182 194 220 238 249 258 267 274 285 296
317 320 327 339 12 72 128 149 157 155 138 106 91 93 97 99 98 97 99 100 101 100 98 103 114 133 141 144 156 175 200 210 197 198 202 219 240 253 259 266 276 285 294
346 355 4 14 26 40 53 64 72 77 78 83 86 89 92 95 97 99 100 100 102 102 104 105 111 129 153 171 184 201 223 233 227 213 211 221 238 248 259 271 279 286 292
3 10 16 23 30 38 48 56 61 68 74 80 84 89 93 97 101 101 101 101 102 105 110 114 129 148 176 201 222 230 233 236 232 226 220 231 245 257 267 275 280 287 292